Theta_e
336 329 328 330 317 316 310 311 318 313 313 317 317 314 312 312 308 304 328 328 327 339 348 348 355 354 353 352 352 351 351 351 349 347 345 342 340 339 339 338 337 335 335 337 339 343 344 343 343
326 327 334 326 314 309 309 315 313 314 316 317 316 315 312 310 315 316 322 329 328 333 345 347 354 354 354 354 353 352 352 351 348 347 345 342 341 340 340 340 339 338 337 337 338 342 343 344 343
335 337 324 318 314 309 308 315 314 316 317 315 314 317 314 313 317 317 328 330 329 335 337 349 354 354 355 354 354 354 352 350 348 346 345 345 343 342 341 341 340 340 339 338 338 339 342 343 344
334 329 324 313 309 313 314 316 317 315 316 317 316 311 317 321 319 322 326 326 325 326 336 350 354 353 351 350 351 351 349 348 346 343 342 343 341 342 342 339 340 340 340 339 338 340 341 342 342
331 323 313 312 311 314 318 319 317 313 314 315 315 311 314 320 323 324 325 325 325 330 332 337 346 343 344 344 345 344 341 340 340 340 340 339 340 340 340 339 339 339 340 340 338 339 340 341 341
319 320 309 307 310 315 318 319 316 314 315 315 313 312 316 323 322 323 324 326 326 329 335 338 343 344 343 344 343 339 334 333 334 335 335 336 337 337 337 336 336 337 338 339 339 338 339 341 341
317 314 310 310 309 312 315 321 316 315 313 313 316 310 318 321 323 326 326 328 330 330 331 333 334 340 343 342 337 333 331 330 331 332 333 333 334 334 335 335 336 337 339 339 339 339 340 340 341
320 315 309 310 309 310 317 318 320 317 314 319 318 310 312 321 325 325 324 324 324 325 325 332 335 332 336 336 337 334 332 333 332 333 333 333 332 333 334 335 336 337 338 338 338 338 339 339 339
323 310 307 309 309 311 316 315 320 321 317 317 318 316 319 323 323 321 322 321 321 324 330 332 327 333 335 335 335 336 335 334 334 334 332 331 330 330 332 334 336 337 337 337 337 338 339 338 339
315 310 310 315 315 312 314 314 316 315 315 316 316 318 320 321 320 318 319 319 322 325 327 329 332 335 337 332 337 337 336 336 336 333 333 331 331 331 331 332 333 334 336 337 337 336 336 335 332
316 310 314 315 317 316 313 313 316 314 312 315 314 316 318 318 320 319 318 322 322 327 328 328 335 339 338 335 335 333 334 335 335 334 334 334 330 329 330 332 332 333 334 333 334 332 332 331 329
312 316 316 316 317 314 312 315 314 314 314 318 317 318 318 319 318 317 319 327 323 327 330 333 338 338 342 338 333 333 334 334 332 333 335 332 330 332 332 331 331 332 332 331 333 330 331 331 331
314 315 316 317 316 315 315 313 314 314 318 318 317 317 317 319 320 325 327 328 327 329 328 334 337 341 343 341 337 337 336 332 334 333 331 332 332 331 331 331 331 331 330 331 330 331 332 328 333
316 315 315 315 315 315 312 313 314 315 318 316 316 315 317 318 320 323 325 327 329 329 332 335 338 341 341 338 339 337 337 334 334 333 328 333 332 331 332 332 331 330 330 332 331 331 331 332 334
315 310 312 313 314 312 315 310 311 316 317 316 316 317 317 319 319 320 325 329 331 330 335 336 336 338 340 339 338 337 336 337 334 336 332 334 333 332 334 331 331 330 330 331 331 331 332 332 335
309 309 304 311 313 314 313 304 313 317 316 315 316 316 317 319 320 323 326 330 333 332 334 336 331 335 340 340 339 338 339 338 337 337 333 332 333 334 333 330 331 332 332 328 330 330 330 330 332
307 302 303 307 314 313 311 307 313 316 316 316 317 317 317 319 323 327 326 329 332 333 335 334 337 336 339 339 333 339 339 339 338 338 332 330 331 334 334 330 332 333 330 329 330 328 328 330 330
301 302 304 305 311 312 309 309 313 315 315 317 317 318 318 319 321 324 326 329 331 332 335 337 337 339 339 337 339 340 339 337 339 335 330 330 330 333 335 332 331 333 329 328 328 328 330 330 330
306 305 305 309 312 310 309 311 312 315 315 315 317 318 320 321 323 325 326 329 329 332 334 337 337 340 338 336 335 336 337 336 337 337 333 331 332 332 334 332 329 333 330 328 329 329 328 328 330
305 304 305 308 311 310 309 308 312 314 315 315 315 317 319 321 321 323 326 328 329 330 333 336 337 339 340 338 338 338 336 336 335 336 334 333 331 333 335 332 330 332 331 330 329 329 326 327 328
305 304 305 305 309 310 308 306 309 313 315 316 317 319 321 321 320 322 324 327 328 329 331 334 336 340 341 341 340 338 337 335 332 333 330 331 333 333 334 334 331 331 333 331 329 330 327 325 327
302 308 308 307 304 299 308 298 307 310 311 313 314 317 318 321 322 322 324 326 328 327 331 334 337 340 340 340 337 335 332 330 332 328 333 330 333 333 333 334 332 332 332 331 331 330 327 325 324
306 310 308 308 305 304 303 299 303 310 308 311 312 315 319 321 321 321 323 326 326 327 330 334 337 340 341 341 339 335 333 334 335 332 331 329 328 334 333 333 334 332 332 332 333 330 329 327 327
311 308 308 307 304 297 302 301 301 305 307 309 311 315 318 320 321 323 325 326 325 325 329 334 336 338 340 340 339 334 332 331 331 329 329 331 332 332 334 333 335 335 332 334 336 333 330 330 331
308 306 297 295 294 294 303 300 303 310 310 310 310 315 320 321 321 322 323 322 323 323 328 330 333 333 336 337 337 335 334 333 331 329 327 330 329 330 332 333 335 336 336 336 336 334 332 330 331
307 306 298 291 292 295 305 298 303 311 313 313 313 317 321 320 321 322 323 323 322 323 327 329 330 330 334 334 336 336 335 335 330 330 331 330 330 332 333 334 331 334 335 335 335 332 333 334 332
306 302 307 300 301 297 300 305 310 311 310 311 313 318 321 321 321 322 323 323 323 324 327 331 331 331 332 333 336 336 336 334 334 334 335 331 333 333 332 333 333 334 334 333 333 331 331 332 331
309 310 300 301 292 291 297 300 301 306 308 312 316 318 321 322 321 322 322 324 323 325 328 332 331 330 331 333 335 333 336 334 335 336 335 332 332 331 328 329 331 334 333 333 334 332 333 331 328
305 304 304 304 301 295 294 298 311 310 312 316 317 320 320 320 319 321 322 324 322 324 325 330 330 328 329 331 332 334 334 334 333 333 332 331 330 331 331 329 330 332 333 333 333 330 330 330 328
309 306 306 299 299 301 300 299 314 315 314 315 318 320 319 320 320 320 321 323 319 321 324 327 330 325 327 328 329 331 334 334 334 332 334 332 327 331 331 332 331 332 331 333 330 329 330 327 326
Wind_Speed
8 11 9 11 8 9 16 10 13 8 14 13 8 7 10 9 12 5 5 9 4 14 13 15 16 15 13 12 12 11 10 10 11 10 10 10 10 11 10 10 9 8 9 11 12 12 13 12 11
12 13 10 8 11 15 2 10 7 11 11 9 2 5 3 13 13 7 12 5 6 8 12 12 16 15 14 13 12 11 11 10 10 10 11 11 13 13 13 12 11 11 10 12 13 13 11 13 12
12 17 9 10 14 15 7 6 9 10 4 2 5 4 3 6 9 5 9 4 4 3 10 14 18 15 13 12 10 10 10 9 10 9 9 11 13 14 14 13 14 14 13 12 14 13 13 11 14
8 9 8 11 17 11 10 8 7 10 9 8 5 5 9 7 8 7 9 4 2 4 13 13 12 9 6 6 6 7 8 8 8 9 9 10 12 13 13 15 15 16 17 14 15 14 12 12 13
11 8 12 19 21 10 14 15 7 8 8 7 10 2 9 10 10 11 8 2 1 2 9 12 12 9 7 3 2 2 3 4 5 8 10 11 12 14 14 15 16 18 17 17 15 15 10 9 10
9 11 13 15 19 9 8 7 7 9 10 3 4 3 8 13 10 8 7 7 1 6 5 8 10 9 8 9 9 7 2 3 7 9 11 12 14 16 17 18 18 19 19 17 17 15 11 9 8
14 12 18 21 21 22 11 9 5 10 9 8 10 4 6 15 10 7 7 6 2 3 5 6 6 11 13 12 9 7 6 5 7 8 11 12 14 16 18 18 18 19 19 17 17 13 10 8 8
13 13 22 19 19 20 3 5 10 12 5 5 2 3 5 10 11 7 7 11 10 10 8 3 7 1 1 6 12 12 9 9 7 9 10 11 12 16 19 18 17 19 19 17 16 15 11 9 7
18 14 16 21 23 14 15 12 9 10 3 12 4 6 9 10 10 8 7 7 6 5 5 4 5 5 5 5 4 13 13 9 9 11 7 4 5 7 11 14 18 17 18 16 17 15 10 8 8
17 15 23 21 21 16 17 14 15 16 11 13 12 9 11 12 11 9 9 9 10 3 6 6 7 6 3 6 4 3 2 1 1 4 4 4 5 6 10 11 8 8 12 16 16 12 11 10 5
21 20 22 22 20 18 19 17 17 13 11 8 6 0 15 11 8 8 10 6 8 5 4 6 4 2 2 5 4 3 1 1 2 5 4 4 5 5 5 3 3 4 10 6 10 8 6 8 7
25 26 24 24 19 19 19 20 17 10 11 10 3 2 13 15 10 9 8 1 6 6 3 5 4 3 2 3 5 5 3 2 4 4 4 4 4 4 4 2 5 4 4 9 5 5 7 8 8
26 26 24 19 14 23 23 20 17 13 10 5 2 6 6 5 9 5 3 4 6 2 5 2 4 1 1 3 4 3 3 4 4 7 7 7 3 4 5 4 4 4 4 7 7 8 5 8 6
22 25 23 17 24 23 22 17 14 19 8 3 8 7 11 8 7 7 7 4 4 3 0 2 2 1 2 2 5 4 3 6 4 6 7 4 4 3 4 3 4 4 4 5 7 7 6 5 6
23 25 22 23 21 21 20 19 16 17 10 14 11 11 10 9 9 11 10 7 4 2 3 1 5 4 3 5 5 4 4 4 5 5 5 4 4 5 4 4 4 4 5 5 6 7 6 6 4
23 26 22 23 23 25 22 18 13 15 11 16 13 12 13 12 12 8 9 9 6 2 1 1 3 4 3 4 3 4 3 3 4 4 3 4 5 5 4 4 3 4 5 6 5 6 5 4 4
20 18 25 24 22 24 15 16 16 15 14 13 12 11 11 11 10 8 9 9 6 4 2 1 2 5 4 5 4 3 3 2 3 4 2 3 7 5 3 4 3 4 4 5 5 5 4 4 5
19 23 22 23 23 18 15 15 16 16 19 10 17 14 12 10 14 13 10 9 7 4 4 2 2 2 3 5 3 2 2 2 2 3 2 4 5 5 3 4 4 4 4 5 5 8 7 6 6
25 24 24 22 14 10 15 21 15 12 13 18 15 11 8 10 15 14 11 9 7 5 4 5 1 2 2 3 3 0 1 3 1 0 4 6 5 7 3 4 6 5 5 6 6 5 7 6 5
28 26 24 21 18 14 15 15 13 14 17 20 17 10 8 12 16 15 13 9 7 7 6 4 3 0 3 4 2 2 1 0 2 2 1 2 5 6 3 5 7 6 4 5 5 6 4 2 2
25 25 20 23 17 16 16 14 13 21 18 15 12 5 1 14 14 15 13 10 8 6 6 5 3 1 1 4 2 3 3 3 2 2 2 4 1 3 4 5 5 5 4 4 7 5 5 4 3
25 25 25 19 15 12 14 14 13 15 16 11 6 9 10 15 15 15 14 12 9 8 7 5 4 2 2 4 5 4 3 4 2 2 2 3 1 2 4 4 5 7 4 6 4 6 4 4 4
23 24 22 16 15 16 14 13 14 15 17 7 1 6 13 16 16 17 15 13 11 8 7 5 5 3 3 3 4 4 5 3 2 2 3 5 3 3 4 4 3 3 2 5 6 9 12 7 4
24 22 16 11 12 14 15 16 14 16 2 4 2 6 13 14 15 15 14 13 10 8 8 6 5 3 1 4 3 5 5 6 3 3 2 3 3 2 3 5 3 3 4 4 4 5 10 7 7
23 17 10 12 12 12 17 18 16 12 7 1 3 5 12 13 14 15 14 13 11 9 9 6 6 5 2 5 4 5 5 5 5 4 4 4 4 3 4 4 3 2 4 4 4 5 8 11 9
23 16 13 15 12 17 15 13 4 2 6 4 2 6 11 12 14 14 14 12 12 10 9 8 7 6 4 4 4 4 7 3 3 3 2 3 4 3 4 4 6 7 6 6 6 6 8 10 8
21 23 18 18 16 13 7 14 10 12 9 9 8 9 11 10 13 14 14 12 11 10 8 5 6 6 4 4 3 2 5 5 3 3 2 4 4 5 7 5 5 6 6 9 10 9 9 10 9
22 18 17 13 17 15 13 14 6 13 9 11 12 8 10 12 14 13 13 11 10 10 8 6 5 6 5 4 4 3 3 5 5 3 3 5 5 6 8 5 8 8 8 12 11 9 9 11 8
19 20 18 14 14 12 12 11 15 11 9 11 11 12 12 14 14 13 13 11 10 10 10 6 6 6 6 4 4 2 4 4 6 6 4 6 5 6 9 5 6 9 9 10 10 9 10 11 10
23 23 18 11 17 12 11 3 10 9 9 6 16 14 14 15 14 14 13 12 11 10 11 9 6 7 6 5 6 2 5 4 5 6 5 6 8 7 7 7 8 5 9 9 12 10 9 10 10
Wind_Direction
194 210 224 244 256 231 261 1 229 331 59 50 24 1 349 335 42 49 119 112 88 96 128 157 161 176 189 198 209 213 220 227 237 241 240 240 251 265 279 293 296 289 287 276 275 276 258 261 265
206 215 234 273 248 279 352 276 320 14 44 37 2 259 353 75 60 102 127 110 107 125 152 148 169 182 193 202 212 218 225 233 244 244 241 243 246 249 262 272 280 282 278 274 267 269 270 266 262
265 249 273 240 252 266 320 293 345 352 101 137 278 164 61 92 79 65 101 114 148 149 167 141 168 183 193 206 218 227 234 239 240 247 250 248 251 253 260 271 274 274 269 269 264 261 267 264 263
226 218 242 254 261 298 330 350 336 1 309 157 207 46 107 94 125 100 122 172 210 250 98 129 139 160 183 221 245 256 263 263 263 264 270 265 261 264 265 266 269 266 267 259 257 261 266 267 263
249 269 260 262 268 344 265 313 356 315 305 328 113 235 102 118 115 124 135 178 236 314 110 129 138 141 145 171 246 316 23 344 314 293 281 277 279 280 277 269 263 259 255 252 248 252 257 273 276
228 234 262 272 294 189 269 346 348 310 304 318 207 111 104 135 139 140 138 165 60 44 81 122 136 139 158 173 178 179 183 282 290 288 290 287 279 277 274 270 263 264 254 243 242 240 246 261 270
253 269 271 283 301 298 320 203 289 297 328 5 24 19 127 157 139 141 139 114 117 121 167 180 154 179 190 188 185 179 188 226 264 279 281 279 278 275 273 269 263 261 252 235 238 230 237 253 274
241 264 275 276 273 288 11 318 262 318 272 5 94 336 47 111 124 151 186 175 184 179 207 132 197 198 47 160 186 188 198 220 240 264 281 282 282 276 269 264 260 256 255 229 225 228 230 242 263
243 256 261 272 284 310 311 323 331 295 210 279 219 176 105 128 154 190 198 227 220 171 171 139 49 38 9 312 267 187 219 223 223 252 280 277 267 275 286 252 244 244 234 220 216 223 221 231 244
242 247 259 274 288 311 317 312 309 303 237 233 194 158 149 160 182 218 208 214 226 148 63 66 58 49 345 292 304 302 326 113 270 299 298 281 288 298 283 286 281 241 215 212 212 204 222 226 235
239 252 257 273 292 303 300 298 284 293 299 295 27 328 155 183 205 218 246 254 67 77 58 53 67 86 4 308 315 294 294 85 194 255 247 247 260 268 259 265 226 199 212 203 205 197 213 211 211
256 253 255 256 280 300 277 281 280 290 289 274 75 25 166 189 203 194 232 169 148 87 65 57 55 73 251 331 312 318 331 37 292 253 224 231 251 272 279 289 263 211 192 201 195 206 202 212 216
252 261 261 272 277 264 268 264 280 279 291 313 319 229 223 235 186 174 151 96 61 58 53 39 51 272 266 245 297 310 298 274 281 275 231 216 220 249 248 226 249 256 228 187 192 216 210 204 208
256 260 267 270 257 263 268 263 255 268 253 205 265 248 243 221 186 162 166 137 151 109 61 60 301 335 272 265 250 269 260 284 277 276 279 194 194 230 275 269 250 232 245 170 184 212 217 191 177
264 266 270 255 254 260 269 262 247 269 230 260 244 231 234 261 220 206 149 156 169 141 163 234 235 196 254 235 235 238 268 248 262 276 282 277 250 224 243 260 241 224 210 174 191 223 223 163 167
257 261 258 259 252 251 237 251 265 260 215 253 238 243 242 219 222 171 139 138 149 221 172 138 305 343 337 315 293 317 276 267 255 256 299 317 292 258 246 262 238 206 201 183 185 213 204 181 173
248 250 254 257 250 254 224 237 241 269 280 243 237 252 253 213 156 134 145 140 152 183 212 204 27 276 2 312 304 284 278 259 281 268 231 258 277 273 240 257 252 173 175 190 183 204 203 170 188
236 239 237 251 260 252 228 243 238 239 249 258 258 244 241 220 155 148 150 155 153 177 163 202 240 308 351 278 295 274 304 324 244 282 253 262 278 255 239 232 255 198 171 188 214 204 167 173 190
244 249 249 251 238 267 232 240 239 265 283 287 289 284 245 184 147 144 152 160 149 177 179 212 202 266 312 301 323 31 321 303 130 287 273 263 260 270 216 223 204 207 176 183 203 151 173 182 131
241 251 260 273 283 291 288 271 280 290 269 265 263 271 269 144 138 149 153 159 159 182 200 172 214 49 296 33 324 334 333 339 351 357 11 263 252 236 198 203 177 175 188 176 168 158 168 156 152
232 244 254 263 276 277 282 270 264 262 263 263 248 213 189 143 150 152 158 166 173 187 169 194 142 144 332 11 279 342 319 314 291 5 25 336 227 188 203 209 184 164 164 170 179 162 141 121 208
231 232 239 250 270 271 283 292 287 297 277 258 256 203 170 150 154 153 162 169 179 185 173 145 148 213 145 24 5 18 350 343 343 46 37 16 341 189 186 229 156 165 173 164 177 137 97 109 137
233 236 240 237 244 256 263 269 277 282 283 237 129 232 170 145 159 159 165 168 179 170 156 159 150 169 134 99 9 15 29 354 344 12 47 68 31 343 191 215 196 151 100 171 166 146 152 158 203
233 236 244 253 261 253 248 254 268 267 29 84 338 105 131 149 153 152 160 161 174 159 157 152 159 165 234 94 12 63 24 13 36 33 4 45 45 6 169 169 175 152 172 187 151 157 155 157 138
216 225 223 223 235 254 253 248 249 265 307 112 14 96 138 144 148 152 161 161 164 173 153 168 156 171 226 86 49 37 68 50 61 53 24 7 45 40 117 113 158 175 165 159 141 155 141 134 127
208 203 229 224 225 245 268 239 257 223 147 113 127 73 122 145 145 157 164 166 165 165 157 208 158 143 195 98 86 65 91 50 94 61 41 31 44 67 120 133 147 173 160 141 152 128 108 99 96
197 212 215 251 262 275 226 230 265 158 173 200 174 135 130 145 147 158 160 169 165 159 159 176 165 151 151 113 114 76 118 104 96 107 53 45 75 83 61 46 98 113 136 133 118 110 111 91 94
222 194 207 226 242 264 281 277 264 144 196 150 125 141 139 146 154 159 165 164 162 155 155 174 150 152 141 146 168 117 88 110 98 111 98 81 61 90 83 52 112 109 130 123 109 113 110 104 99
201 228 198 225 223 229 248 268 122 150 163 132 152 140 153 154 164 162 163 158 165 159 159 176 182 157 131 153 98 160 99 78 77 86 73 98 55 73 110 92 70 120 112 114 115 111 110 109 110
207 216 203 214 220 249 255 297 88 104 133 151 123 142 160 159 168 165 163 161 171 168 159 171 193 155 155 154 130 148 106 86 81 95 103 99 86 69 82 105 108 81 112 124 122 131 128 122 122